![]() |
EMODnet Physics ERDDAP
Easier access to scientific data |
log in|
Brought to you by EMODnet Physics |
| Dataset Title: | NDBC - Collection of dew point temperature (DEWT) TimeSeries - IN SITU MultiPointTimeSeriesObservation
|
| Institution: | NDBC (Dataset ID: TS_DEWT_NDBC) |
| Information: | Summary
| License
| FGDC
| ISO 19115
| Metadata
| Background
| Subset
| Data Access Form
| Make a graph
|
| Name | Last modified | Size | Description | |
|---|---|---|---|---|
| Parent Directory | - | - | ||
| CDEA2_TS_DEWT_012007.nc | 06-Nov-2024 04:10 | 429593 | ||
| CDEA2_TS_DEWT_012008.nc | 06-Nov-2024 05:04 | 429686 | ||
| CDEA2_TS_DEWT_012009.nc | 06-Nov-2024 05:58 | 429679 | ||
| CDEA2_TS_DEWT_012011.nc | 06-Nov-2024 07:10 | 429681 | ||
| CDEA2_TS_DEWT_012012.nc | 06-Nov-2024 08:03 | 429687 | ||
| CDEA2_TS_DEWT_012013.nc | 06-Nov-2024 08:50 | 429674 | ||
| CDEA2_TS_DEWT_012014.nc | 06-Nov-2024 09:32 | 429675 | ||
| CDEA2_TS_DEWT_012015.nc | 06-Nov-2024 10:07 | 429682 | ||
| CDEA2_TS_DEWT_012016.nc | 06-Nov-2024 10:39 | 429675 | ||
| CDEA2_TS_DEWT_012018.nc | 06-Nov-2024 12:21 | 451391 | ||
| CDEA2_TS_DEWT_012020.nc | 06-Nov-2024 13:11 | 449452 | ||
| CDEA2_TS_DEWT_012021.nc | 06-Nov-2024 14:08 | 450481 | ||
| CDEA2_TS_DEWT_012022.nc | 06-Nov-2024 15:02 | 449996 | ||
| CDEA2_TS_DEWT_012023.nc | 06-Nov-2024 16:00 | 429896 | ||
| CDEA2_TS_DEWT_012025.nc | 07-Feb-2025 11:12 | 450928 | ||
| CDEA2_TS_DEWT_012026.nc | 02-Feb-2026 16:48 | 450663 | ||
| CDEA2_TS_DEWT_022007.nc | 06-Nov-2024 04:16 | 451694 | ||
| CDEA2_TS_DEWT_022008.nc | 06-Nov-2024 05:07 | 429901 | ||
| CDEA2_TS_DEWT_022009.nc | 06-Nov-2024 06:03 | 450396 | ||
| CDEA2_TS_DEWT_022011.nc | 06-Nov-2024 07:14 | 450337 | ||
| CDEA2_TS_DEWT_022012.nc | 06-Nov-2024 08:07 | 450874 | ||
| CDEA2_TS_DEWT_022013.nc | 06-Nov-2024 08:54 | 429897 | ||
| CDEA2_TS_DEWT_022014.nc | 06-Nov-2024 09:37 | 439846 | ||
| CDEA2_TS_DEWT_022015.nc | 06-Nov-2024 10:09 | 450240 | ||
| CDEA2_TS_DEWT_022016.nc | 06-Nov-2024 10:42 | 429897 | ||
| CDEA2_TS_DEWT_022017.nc | 06-Nov-2024 11:31 | 429886 | ||
| CDEA2_TS_DEWT_022020.nc | 06-Nov-2024 13:14 | 450873 | ||
| CDEA2_TS_DEWT_022021.nc | 06-Nov-2024 14:13 | 450475 | ||
| CDEA2_TS_DEWT_022022.nc | 06-Nov-2024 15:07 | 427535 | ||
| CDEA2_TS_DEWT_022023.nc | 06-Nov-2024 16:05 | 429879 | ||
| CDEA2_TS_DEWT_022025.nc | 03-Mar-2025 05:15 | 429857 | ||
| CDEA2_TS_DEWT_022026.nc | 01-Mar-2026 05:47 | 3479614 | ||
| CDEA2_TS_DEWT_032007.nc | 06-Nov-2024 04:22 | 428198 | ||
| CDEA2_TS_DEWT_032008.nc | 06-Nov-2024 05:11 | 429337 | ||
| CDEA2_TS_DEWT_032009.nc | 06-Nov-2024 06:06 | 429342 | ||
| CDEA2_TS_DEWT_032011.nc | 06-Nov-2024 07:19 | 429357 | ||
| CDEA2_TS_DEWT_032012.nc | 06-Nov-2024 08:11 | 429339 | ||
| CDEA2_TS_DEWT_032013.nc | 06-Nov-2024 08:57 | 429305 | ||
| CDEA2_TS_DEWT_032014.nc | 06-Nov-2024 09:40 | 429353 | ||
| CDEA2_TS_DEWT_032015.nc | 06-Nov-2024 10:10 | 429356 | ||
| CDEA2_TS_DEWT_032016.nc | 06-Nov-2024 10:44 | 429347 | ||
| CDEA2_TS_DEWT_032017.nc | 06-Nov-2024 11:35 | 429355 | ||
| CDEA2_TS_DEWT_032020.nc | 06-Nov-2024 13:20 | 429361 | ||
| CDEA2_TS_DEWT_032021.nc | 06-Nov-2024 14:18 | 429349 | ||
| CDEA2_TS_DEWT_032022.nc | 06-Nov-2024 15:12 | 429351 | ||
| CDEA2_TS_DEWT_032023.nc | 06-Nov-2024 16:10 | 429360 | ||
| CDEA2_TS_DEWT_032025.nc | 02-Apr-2025 04:38 | 429355 | ||
| CDEA2_TS_DEWT_032026.nc | 24-Mar-2026 05:54 | 429353 | ||
| CDEA2_TS_DEWT_042007.nc | 06-Nov-2024 04:27 | 429354 | ||
| CDEA2_TS_DEWT_042008.nc | 06-Nov-2024 05:15 | 449336 | ||
| CDEA2_TS_DEWT_042009.nc | 06-Nov-2024 06:10 | 449037 | ||
| CDEA2_TS_DEWT_042011.nc | 06-Nov-2024 07:24 | 450219 | ||
| CDEA2_TS_DEWT_042012.nc | 06-Nov-2024 08:16 | 449826 | ||
| CDEA2_TS_DEWT_042013.nc | 06-Nov-2024 09:01 | 429561 | ||
| CDEA2_TS_DEWT_042014.nc | 06-Nov-2024 09:43 | 450213 | ||
| CDEA2_TS_DEWT_042015.nc | 06-Nov-2024 10:13 | 448527 | ||
| CDEA2_TS_DEWT_042016.nc | 06-Nov-2024 10:49 | 449688 | ||
| CDEA2_TS_DEWT_042017.nc | 06-Nov-2024 11:39 | 429555 | ||
| CDEA2_TS_DEWT_042020.nc | 06-Nov-2024 13:25 | 450501 | ||
| CDEA2_TS_DEWT_042021.nc | 06-Nov-2024 14:23 | 450491 | ||
| CDEA2_TS_DEWT_042022.nc | 06-Nov-2024 15:17 | 448942 | ||
| CDEA2_TS_DEWT_042023.nc | 06-Nov-2024 16:16 | 429563 | ||
| CDEA2_TS_DEWT_042025.nc | 01-May-2025 05:13 | 449702 | ||
| CDEA2_TS_DEWT_052007.nc | 06-Nov-2024 04:32 | 449643 | ||
| CDEA2_TS_DEWT_052008.nc | 06-Nov-2024 05:20 | 429560 | ||
| CDEA2_TS_DEWT_052009.nc | 06-Nov-2024 06:15 | 429341 | ||
| CDEA2_TS_DEWT_052011.nc | 06-Nov-2024 07:29 | 449019 | ||
| CDEA2_TS_DEWT_052012.nc | 06-Nov-2024 08:21 | 448656 | ||
| CDEA2_TS_DEWT_052013.nc | 06-Nov-2024 09:05 | 429555 | ||
| CDEA2_TS_DEWT_052014.nc | 06-Nov-2024 09:46 | 429541 | ||
| CDEA2_TS_DEWT_052015.nc | 06-Nov-2024 10:16 | 429556 | ||
| CDEA2_TS_DEWT_052016.nc | 06-Nov-2024 10:53 | 429669 | ||
| CDEA2_TS_DEWT_052017.nc | 06-Nov-2024 11:43 | 429674 | ||
| CDEA2_TS_DEWT_052019.nc | 06-Nov-2024 12:43 | 429681 | ||
| CDEA2_TS_DEWT_052020.nc | 06-Nov-2024 13:30 | 429675 | ||
| CDEA2_TS_DEWT_052021.nc | 06-Nov-2024 14:28 | 429599 | ||
| CDEA2_TS_DEWT_052022.nc | 06-Nov-2024 15:21 | 429683 | ||
| CDEA2_TS_DEWT_052023.nc | 06-Nov-2024 16:20 | 429674 | ||
| CDEA2_TS_DEWT_052025.nc | 01-Jun-2025 06:55 | 429679 | ||
| CDEA2_TS_DEWT_062007.nc | 06-Nov-2024 04:37 | 429689 | ||
| CDEA2_TS_DEWT_062008.nc | 06-Nov-2024 05:24 | 429661 | ||
| CDEA2_TS_DEWT_062009.nc | 06-Nov-2024 06:21 | 429675 | ||
| CDEA2_TS_DEWT_062011.nc | 06-Nov-2024 07:33 | 429688 | ||
| CDEA2_TS_DEWT_062012.nc | 06-Nov-2024 08:25 | 429678 | ||
| CDEA2_TS_DEWT_062013.nc | 06-Nov-2024 09:09 | 429359 | ||
| CDEA2_TS_DEWT_062014.nc | 06-Nov-2024 09:48 | 429681 | ||
| CDEA2_TS_DEWT_062015.nc | 06-Nov-2024 10:19 | 429675 | ||
| CDEA2_TS_DEWT_062016.nc | 06-Nov-2024 10:58 | 429674 | ||
| CDEA2_TS_DEWT_062017.nc | 06-Nov-2024 11:48 | 434340 | ||
| CDEA2_TS_DEWT_062019.nc | 06-Nov-2024 12:46 | 451052 | ||
| CDEA2_TS_DEWT_062020.nc | 06-Nov-2024 13:35 | 450949 | ||
| CDEA2_TS_DEWT_062021.nc | 06-Nov-2024 14:32 | 450731 | ||
| CDEA2_TS_DEWT_062022.nc | 06-Nov-2024 15:25 | 429898 | ||
| CDEA2_TS_DEWT_062023.nc | 06-Nov-2024 16:24 | 419920 | ||
| CDEA2_TS_DEWT_062025.nc | 01-Jul-2025 06:19 | 450289 | ||
| CDEA2_TS_DEWT_072007.nc | 06-Nov-2024 04:41 | 441973 | ||
| CDEA2_TS_DEWT_072008.nc | 06-Nov-2024 05:29 | 429903 | ||
| CDEA2_TS_DEWT_072009.nc | 06-Nov-2024 06:25 | 450610 | ||
| CDEA2_TS_DEWT_072010.nc | 06-Nov-2024 06:45 | 451569 | ||
| CDEA2_TS_DEWT_072011.nc | 06-Nov-2024 07:36 | 431789 | ||
| CDEA2_TS_DEWT_072012.nc | 06-Nov-2024 08:29 | 429901 | ||
| CDEA2_TS_DEWT_072013.nc | 06-Nov-2024 09:12 | 449892 | ||
| CDEA2_TS_DEWT_072014.nc | 06-Nov-2024 09:50 | 450236 | ||
| CDEA2_TS_DEWT_072015.nc | 06-Nov-2024 10:21 | 429884 | ||
| CDEA2_TS_DEWT_072016.nc | 06-Nov-2024 11:03 | 429901 | ||
| CDEA2_TS_DEWT_072017.nc | 06-Nov-2024 11:53 | 450726 | ||
| CDEA2_TS_DEWT_072019.nc | 06-Nov-2024 12:49 | 450451 | ||
| CDEA2_TS_DEWT_072020.nc | 06-Nov-2024 13:40 | 429897 | ||
| CDEA2_TS_DEWT_072021.nc | 06-Nov-2024 14:36 | 429901 | ||
| CDEA2_TS_DEWT_072022.nc | 06-Nov-2024 15:30 | 429895 | ||
| CDEA2_TS_DEWT_072023.nc | 06-Nov-2024 16:30 | 1028188 | ||
| CDEA2_TS_DEWT_072025.nc | 01-Aug-2025 06:31 | 429336 | ||
| CDEA2_TS_DEWT_082007.nc | 06-Nov-2024 04:45 | 429340 | ||
| CDEA2_TS_DEWT_082008.nc | 06-Nov-2024 05:34 | 429352 | ||
| CDEA2_TS_DEWT_082009.nc | 06-Nov-2024 06:27 | 429354 | ||
| CDEA2_TS_DEWT_082010.nc | 06-Nov-2024 06:49 | 429344 | ||
| CDEA2_TS_DEWT_082011.nc | 06-Nov-2024 07:41 | 429304 | ||
| CDEA2_TS_DEWT_082012.nc | 06-Nov-2024 08:33 | 429338 | ||
| CDEA2_TS_DEWT_082013.nc | 06-Nov-2024 09:15 | 429347 | ||
| CDEA2_TS_DEWT_082014.nc | 06-Nov-2024 09:53 | 429351 | ||
| CDEA2_TS_DEWT_082015.nc | 06-Nov-2024 10:23 | 429360 | ||
| CDEA2_TS_DEWT_082016.nc | 06-Nov-2024 11:07 | 429356 | ||
| CDEA2_TS_DEWT_082017.nc | 06-Nov-2024 11:58 | 429355 | ||
| CDEA2_TS_DEWT_082018.nc | 06-Nov-2024 12:25 | 429362 | ||
| CDEA2_TS_DEWT_082019.nc | 06-Nov-2024 12:53 | 429357 | ||
| CDEA2_TS_DEWT_082020.nc | 06-Nov-2024 13:44 | 429036 | ||
| CDEA2_TS_DEWT_082021.nc | 06-Nov-2024 14:40 | 429358 | ||
| CDEA2_TS_DEWT_082022.nc | 06-Nov-2024 15:36 | 429358 | ||
| CDEA2_TS_DEWT_082023.nc | 06-Nov-2024 16:35 | 437203 | ||
| CDEA2_TS_DEWT_082025.nc | 01-Sep-2025 06:10 | 447328 | ||
| CDEA2_TS_DEWT_092007.nc | 06-Nov-2024 04:48 | 450223 | ||
| CDEA2_TS_DEWT_092008.nc | 06-Nov-2024 05:39 | 448733 | ||
| CDEA2_TS_DEWT_092009.nc | 06-Nov-2024 06:31 | 429558 | ||
| CDEA2_TS_DEWT_092010.nc | 06-Nov-2024 06:53 | 435807 | ||
| CDEA2_TS_DEWT_092011.nc | 06-Nov-2024 07:45 | 418873 | ||
| CDEA2_TS_DEWT_092012.nc | 06-Nov-2024 08:36 | 429558 | ||
| CDEA2_TS_DEWT_092013.nc | 06-Nov-2024 09:19 | 429556 | ||
| CDEA2_TS_DEWT_092014.nc | 06-Nov-2024 09:55 | 448958 | ||
| CDEA2_TS_DEWT_092015.nc | 06-Nov-2024 10:26 | 449304 | ||
| CDEA2_TS_DEWT_092016.nc | 06-Nov-2024 11:11 | 429560 | ||
| CDEA2_TS_DEWT_092017.nc | 06-Nov-2024 12:02 | 429556 | ||
| CDEA2_TS_DEWT_092018.nc | 06-Nov-2024 12:28 | 449366 | ||
| CDEA2_TS_DEWT_092019.nc | 06-Nov-2024 12:56 | 449361 | ||
| CDEA2_TS_DEWT_092020.nc | 06-Nov-2024 13:47 | 429553 | ||
| CDEA2_TS_DEWT_092021.nc | 06-Nov-2024 14:45 | 429560 | ||
| CDEA2_TS_DEWT_092022.nc | 06-Nov-2024 15:41 | 450524 | ||
| CDEA2_TS_DEWT_092023.nc | 06-Nov-2024 16:38 | 429553 | ||
| CDEA2_TS_DEWT_092025.nc | 01-Oct-2025 06:01 | 429560 | ||
| CDEA2_TS_DEWT_102006.nc | 06-Nov-2024 03:57 | 429558 | ||
| CDEA2_TS_DEWT_102007.nc | 06-Nov-2024 04:52 | 429541 | ||
| CDEA2_TS_DEWT_102008.nc | 06-Nov-2024 05:43 | 2781327 | ||
| CDEA2_TS_DEWT_102009.nc | 06-Nov-2024 06:36 | 429573 | ||
| CDEA2_TS_DEWT_102010.nc | 06-Nov-2024 06:57 | 429662 | ||
| CDEA2_TS_DEWT_102011.nc | 06-Nov-2024 07:49 | 429674 | ||
| CDEA2_TS_DEWT_102012.nc | 06-Nov-2024 08:39 | 429680 | ||
| CDEA2_TS_DEWT_102013.nc | 06-Nov-2024 09:24 | 429681 | ||
| CDEA2_TS_DEWT_102014.nc | 06-Nov-2024 09:59 | 429655 | ||
| CDEA2_TS_DEWT_102015.nc | 06-Nov-2024 10:30 | 429676 | ||
| CDEA2_TS_DEWT_102016.nc | 06-Nov-2024 11:16 | 429683 | ||
| CDEA2_TS_DEWT_102017.nc | 06-Nov-2024 12:06 | 429658 | ||
| CDEA2_TS_DEWT_102018.nc | 06-Nov-2024 12:31 | 429637 | ||
| CDEA2_TS_DEWT_102019.nc | 06-Nov-2024 13:00 | 429624 | ||
| CDEA2_TS_DEWT_102020.nc | 06-Nov-2024 13:53 | 429676 | ||
| CDEA2_TS_DEWT_102021.nc | 06-Nov-2024 14:51 | 429675 | ||
| CDEA2_TS_DEWT_102022.nc | 06-Nov-2024 15:46 | 429686 | ||
| CDEA2_TS_DEWT_102023.nc | 06-Nov-2024 16:43 | 429687 | ||
| CDEA2_TS_DEWT_102024.nc | 12-Jan-2025 21:36 | 429676 | ||
| CDEA2_TS_DEWT_102025.nc | 01-Nov-2025 06:33 | 429681 | ||
| CDEA2_TS_DEWT_112006.nc | 06-Nov-2024 04:02 | 440775 | ||
| CDEA2_TS_DEWT_112007.nc | 06-Nov-2024 04:56 | 438230 | ||
| CDEA2_TS_DEWT_112008.nc | 06-Nov-2024 05:47 | 449748 | ||
| CDEA2_TS_DEWT_112009.nc | 06-Nov-2024 06:40 | 450836 | ||
| CDEA2_TS_DEWT_112010.nc | 06-Nov-2024 07:01 | 439062 | ||
| CDEA2_TS_DEWT_112011.nc | 06-Nov-2024 07:54 | 450624 | ||
| CDEA2_TS_DEWT_112012.nc | 06-Nov-2024 08:43 | 449814 | ||
| CDEA2_TS_DEWT_112013.nc | 06-Nov-2024 09:28 | 429899 | ||
| CDEA2_TS_DEWT_112014.nc | 06-Nov-2024 10:01 | 429901 | ||
| CDEA2_TS_DEWT_112015.nc | 06-Nov-2024 10:33 | 449687 | ||
| CDEA2_TS_DEWT_112016.nc | 06-Nov-2024 11:22 | 450040 | ||
| CDEA2_TS_DEWT_112017.nc | 06-Nov-2024 12:10 | 429899 | ||
| CDEA2_TS_DEWT_112018.nc | 06-Nov-2024 12:35 | 429899 | ||
| CDEA2_TS_DEWT_112019.nc | 06-Nov-2024 13:04 | 450083 | ||
| CDEA2_TS_DEWT_112020.nc | 06-Nov-2024 13:58 | 451503 | ||
| CDEA2_TS_DEWT_112021.nc | 06-Nov-2024 14:55 | 429899 | ||
| CDEA2_TS_DEWT_112022.nc | 06-Nov-2024 15:51 | 429901 | ||
| CDEA2_TS_DEWT_112023.nc | 06-Nov-2024 16:47 | 450638 | ||
| CDEA2_TS_DEWT_112024.nc | 17-Jan-2025 16:58 | 429899 | ||
| CDEA2_TS_DEWT_112025.nc | 01-Dec-2025 10:33 | 429901 | ||
| CDEA2_TS_DEWT_122006.nc | 06-Nov-2024 04:06 | 429897 | ||
| CDEA2_TS_DEWT_122007.nc | 06-Nov-2024 05:00 | 429903 | ||
| CDEA2_TS_DEWT_122008.nc | 06-Nov-2024 05:52 | 4538559 | ||
| CDEA2_TS_DEWT_122010.nc | 06-Nov-2024 07:05 | 429663 | ||
| CDEA2_TS_DEWT_122011.nc | 06-Nov-2024 07:58 | 429666 | ||
| CDEA2_TS_DEWT_122012.nc | 06-Nov-2024 08:46 | 429670 | ||
| CDEA2_TS_DEWT_122013.nc | 06-Nov-2024 09:31 | 429676 | ||
| CDEA2_TS_DEWT_122014.nc | 06-Nov-2024 10:04 | 429680 | ||
| CDEA2_TS_DEWT_122015.nc | 06-Nov-2024 10:36 | 429681 | ||
| CDEA2_TS_DEWT_122016.nc | 06-Nov-2024 11:26 | 429586 | ||
| CDEA2_TS_DEWT_122017.nc | 06-Nov-2024 12:16 | 429666 | ||
| CDEA2_TS_DEWT_122018.nc | 06-Nov-2024 12:39 | 429685 | ||
| CDEA2_TS_DEWT_122019.nc | 06-Nov-2024 13:08 | 429674 | ||
| CDEA2_TS_DEWT_122020.nc | 06-Nov-2024 14:03 | 427466 | ||
| CDEA2_TS_DEWT_122021.nc | 06-Nov-2024 14:59 | 429682 | ||
| CDEA2_TS_DEWT_122022.nc | 06-Nov-2024 15:55 | 429678 | ||
| CDEA2_TS_DEWT_122023.nc | 06-Nov-2024 16:51 | 429675 | ||
| CDEA2_TS_DEWT_122024.nc | 22-Jan-2025 17:51 | 429686 | ||
| CDEA2_TS_DEWT_122025.nc | 01-Jan-2026 05:13 | 429680 | ||